User: anonymous   Login
Location: Unspecified
(0.0000°N, 0.0000°E)
Time: 22:38:08
(UTC+00:00)
Language:

OPTOS - Orbit

View from above orbital plane
View from above orbital plane
View from above satellite
View from above satellite

Ground track
Ground track

The orbit data is extracted from the following two-line orbital elements,

1 39429U 13066P   21023.45790641  .00000189  00000-0  41976-4 0  9996
2 39429  97.8057 319.6369 0145076 191.5031 168.2847 14.61366156382306
Epoch (UTC): 23 January 2021 10:59:23
Eccentricity: 0.0145076
inclination: 97.8057°
perigee height: 586 km
apogee height: 791 km
right ascension of ascending node: 319.6369°
argument of perigee: 191.5031°
revolutions per day: 14.61366156
mean anomaly at epoch: 168.2847°
orbit number at epoch: 38230

The dashed part of the orbit path shows where the satellite is in the earth's shadow,  

DLR